Regional Weather Roundup
Issued by NWS

Home | Current Version | Previous Version | Graphics & Text | Print | Product List | Glossary Off
Versions: 1 2 3 4 5 6 7 8 9 10 11 12 13 14 15 16 17 18 19 20 21 22 23 24 25 26 27 28 29 30 31 32 33 34 35 36 37 38 39 40 41 42 43 44 45 46 47 48 49 50

209
ASUS43 KLSX 200607
RWRMO

WEATHER SUMMARY FOR MISSOURI
NATIONAL WEATHER SERVICE SPRINGFIELD MO
100 AM CDT WED SEP 20 2017

NOTE: "FAIR" INDICATES FEW OR NO CLOUDS BELOW 12,000 FEET WITH NO
       SIGNIFICANT WEATHER AND/OR OBSTRUCTIONS TO VISIBILITY.
       CURRENT SKY AND/OR WEATHER CONDITIONS ARE NOT AVAILABLE FOR
       CHILLICOTHE AND FARMINGTON.

MOZ001>031-035>038-043-044-053-054-200700-
...NORTHERN AND WESTERN MISSOURI...

CITY           SKY/WX    TMP DP  RH WIND       PRES   REMARKS
KANSAS CTY INT CLEAR     78  69  73 S15       29.75S
6HR MIN TEMP:  77; 6HR MAX TEMP:  83;

KANSAS C DTWN  CLEAR     79  70  74 S10       29.75R
6HR MIN TEMP:  79; 6HR MAX TEMP:  86;

LEE`S SUMMIT   CLEAR     77  69  76 S16       29.77S
6HR MIN TEMP:  77; 6HR MAX TEMP:  83;

ST JOSEPH      CLOUDY    79  70  74 S15       29.71S
6HR MIN TEMP:  77; 6HR MAX TEMP:  84;

CHILLICOTHE      N/A     76  68  76 S5        29.77F
6HR MIN TEMP:  75; 6HR MAX TEMP:  83;

KIRKSVILLE     CLEAR     70  66  87 S8        29.81R
6HR MIN TEMP:  70; 6HR MAX TEMP:  80;


$$
MOZ066>068-077>081-088>096-101>105-200700-
...SOUTHWEST MISSOURI...

CITY           SKY/WX    TMP DP  RH WIND       PRES   REMARKS
SPRINGFIELD    CLEAR     74  68  81 S12       29.86S
6HR MIN TEMP:  74; 6HR MAX TEMP:  82;

JOPLIN         CLEAR     75  71  87 S9        29.82F
6HR MIN TEMP:  75; 6HR MAX TEMP:  83;

BRANSON        PTCLDY    70  66  88 SE6       29.90S

$$
MOZ032>034-039>042-045>050-055>058-069>072-200700-
...CENTRAL MISSOURI...

CITY           SKY/WX    TMP DP  RH WIND       PRES   REMARKS
COLUMBIA       CLEAR     75  67  76 S10       29.84S
6HR MIN TEMP:  74; 6HR MAX TEMP:  82;

JEFFERSON CITY CLEAR     76  66  71 SE6       29.83R HAZE
6HR MIN TEMP:  75; 6HR MAX TEMP:  83;

ROLLA          CLEAR     75  67  76 S10       29.88S
6HR MIN TEMP:  75; 6HR MAX TEMP:  81;

SEDALIA        CLEAR     76  69  79 S10       29.82S
6HR MIN TEMP:  75; 6HR MAX TEMP:  83;

WHITEMAN AFB   PTCLDY    73  66  78 S12       29.78S
WARRENSBURG    CLEAR     73  64  73 S8        29.79S
OSAGE BEACH    CLEAR     74  67  78 S5        29.85S

$$
MOZ051-052-059>065-200700-
...EAST CENTRAL MISSOURI...

CITY           SKY/WX    TMP DP  RH WIND       PRES   REMARKS
ST LOUIS INTL  CLEAR     78  69  73 S12       29.87S
6HR MIN TEMP:  78; 6HR MAX TEMP:  84;

SPIRIT OF STL  CLEAR     76  68  76 S6        29.85S
6HR MIN TEMP:  72; 6HR MAX TEMP:  80;

ST CHARLES     CLEAR     69  67  93 E5        29.86R
6HR MIN TEMP:  69; 6HR MAX TEMP:  81;


$$
MOZ072>076-082>087-097>100-106>115-200700-
...SOUTH CENTRAL AND SOUTHEAST MISSOURI...

CITY           SKY/WX    TMP DP  RH WIND       PRES   REMARKS
CAPE GIRARDEAU CLEAR     72  68  87 CALM      29.90S
6HR MIN TEMP:  71; 6HR MAX TEMP:  81;

FARMINGTON     CLEAR     72  67  84 CALM      29.92S
6HR MIN TEMP:  70; 6HR MAX TEMP:  81;

POPLAR BLUFF   CLEAR     68  67  96 CALM      29.90S
6HR MIN TEMP:  68; 6HR MAX TEMP:  84;

WEST PLAINS    CLEAR     75  69  81 S8        29.92F
6HR MIN TEMP:  75; 6HR MAX TEMP:  84;


$$



USA.gov is the U.S. government's official web portal to all federal, state and local government web resources and services.